Tobol

Kazakhstan     52˚41′37″N   62˚35′41″E
temp.,
°C
wind,
m/s
gust,
m/s
humid.,
%
clouds,
%
prec.,
mm/h
press.,
hPa
HPBL,
m
29 november, sun
sun2923:00−15˚nnw349512 0.0 104459
02:00−15˚nnw339526 0.0 104644
05:00−15˚nw349520 0.0 104859
08:00−15˚nnw33950 0.0 104930
11:00−14˚nnw34944 0.0 1050128
14:00−12˚nw23940 0.0 1050132
17:00−14˚n22940 0.0 105120
20:00−15˚nw22930 0.0 105220
30 november, mon
mon3023:00−15˚nnw22930 0.0 105220
02:00−15˚n22930 0.0 105220
05:00−16˚nnw12940 0.0 105220
08:00−16˚n22940 0.0 105220
11:00−14˚n229516 0.0 105359
14:00−13˚nne229499 0.0 105266
17:00−15˚nne229567 0.0 105220
20:00−16˚ne239618 0.0 105220
1 december, tue
tue123:00−17˚ne239733 0.0 105221
02:00−18˚ne23972 0.0 105220
05:00−18˚ne23961 0.0 105227
08:00−19˚ne33970 0.0 105234
11:00−18˚ene24950 0.0 1052132
14:00−16˚ne34930 0.0 1051171
17:00−18˚ne34940 0.0 105147
20:00−18˚ne34950 0.0 105048
2 december, wed
wed223:00−19˚ene34960 0.0 105054
02:00−19˚ne34960 0.0 104953
05:00−19˚ne34950 0.0 104854
08:00−19˚ne34960 0.0 104759
11:00−17˚ne36950 0.0 1046157
14:00−15˚nne36940 0.0 1044190
17:00−16˚ne34950 0.0 104358
20:00−16˚ne459557 0.0 104281
3 december, thu
thu323:00−16˚ne459479 0.0 104181
02:00−17˚nne45959 0.0 104086
05:00−17˚nne47964 0.0 1039104
08:00−17˚nne47950 0.0 1038105
11:00−16˚nne49930 0.0 1038207
14:00−14˚nne510911 0.0 1037275
17:00−14˚nne5109351 0.0 1036264
20:00−14˚nne51093100 0.0 1036265